Find Starlink 30767

NORAD ID: 58126 Int'l Des: 2023-162 Owner: SPXS Country: US Constellation: starlink operational
LEOCIRCULAR

現在のビュー

3D地球を読み込み中...

About Starlink 30767

Starlink 30767 (NORAD 58126) is a starlink constellation satellite (v2 mini) launched Oct 22, 2023 by SPXS of US. It operates in LEO, CIRCULAR orbit with a mass of 730.00 kg.

次回通過

Passes for default location (London). Set your location on the main map for personalized predictions.

高度履歴

Loading altitude history...

軌道要素

1 58126U 23162J 26237.11752667 .00000937 00000-0 43573-4 0 9996
2 58126 43.0054 258.0903 0002123 272.3613 87.6996 15.27575509158105
Epoch: Aug 25, 2026 • Age: 33 hours

現在のステータス

高度 487.6 km
遠地点 / 近地点 N/A
速度 7.63 km/s
衛星直下点 43.16°N, 176.54°W
打ち上げ日 Oct 22, 2023
運用期間 2.8 years
タイプ internet

技術仕様

分類 Payload
質量 730.00 kg
乾燥質量 700.00 kg
総質量 730.00 kg
長さ 0.30 m
直径 4.10 m
スパン 29.00 m
形状 Box + pan
製造者 SPXS
バスタイプ Starlink V2M
フェーズステータス In Orbit
所有者/国 SPXS/US

Most Searched